Time,TemperatureF,DewpointF,PressureIn,WindDirection,WindDirectionDegrees,WindSpeedMPH,WindSpeedGustMPH,Humidity,HourlyPrecipIn,Conditions,Clouds,dailyrainin,SoftwareType,DateUTC
2013-04-18 00:01:00,35.9,29.0,29.92,NE,45,0.0,1.4,74,0.00,,,0.00,Rainwise IP-100,2013-04-18 04:01:00,
2013-04-18 00:06:00,35.6,29.0,29.93,SSE,157,1.2,2.3,75,0.00,,,0.00,Rainwise IP-100,2013-04-18 04:06:00,
2013-04-18 00:11:00,35.5,29.0,29.93,WNW,292,3.5,3.5,76,0.00,,,0.00,Rainwise IP-100,2013-04-18 04:11:00,
2013-04-18 00:16:00,35.6,29.0,29.94,WNW,292,0.0,4.7,77,0.00,,,0.00,Rainwise IP-100,2013-04-18 04:16:00,
2013-04-18 00:21:00,35.6,29.0,29.94,SSW,202,2.3,2.8,77,0.00,,,0.00,Rainwise IP-100,2013-04-18 04:21:00,
2013-04-18 00:27:00,35.3,29.0,29.94,SSE,157,2.6,3.7,78,0.00,,,0.00,Rainwise IP-100,2013-04-18 04:27:00,
2013-04-18 00:32:00,35.1,29.0,29.93,NNE,22,1.2,2.8,78,0.00,,,0.00,Rainwise IP-100,2013-04-18 04:32:00,
2013-04-18 00:37:00,35.0,29.0,29.94,NNE,22,0.0,1.2,79,0.00,,,0.00,Rainwise IP-100,2013-04-18 04:37:00,
2013-04-18 00:42:00,34.8,29.0,29.94,NNE,22,0.0,0.0,80,0.00,,,0.00,Rainwise IP-100,2013-04-18 04:42:00,
2013-04-18 00:47:00,34.4,29.0,29.93,NNE,22,0.0,2.1,80,0.00,,,0.00,Rainwise IP-100,2013-04-18 04:47:00,
2013-04-18 00:52:00,34.0,29.0,29.93,NNE,22,0.0,1.4,80,0.00,,,0.00,Rainwise IP-100,2013-04-18 04:52:00,
2013-04-18 00:57:00,33.7,29.0,29.93,NNE,22,0.0,1.2,81,0.00,,,0.00,Rainwise IP-100,2013-04-18 04:57:00,
2013-04-18 01:02:00,33.6,29.0,29.94,NNW,337,0.0,0.0,81,0.00,,,0.00,Rainwise IP-100,2013-04-18 05:02:00,
2013-04-18 01:07:00,33.6,29.0,29.93,WSW,247,1.6,1.6,82,0.00,,,0.00,Rainwise IP-100,2013-04-18 05:07:00,
2013-04-18 01:12:00,33.5,29.0,29.93,West,270,0.0,2.3,82,0.00,,,0.00,Rainwise IP-100,2013-04-18 05:12:00,
2013-04-18 01:17:00,33.3,29.0,29.93,West,270,0.0,0.0,82,0.00,,,0.00,Rainwise IP-100,2013-04-18 05:17:00,
2013-04-18 01:22:00,33.1,29.0,29.93,NNE,22,2.6,3.3,82,0.00,,,0.00,Rainwise IP-100,2013-04-18 05:22:00,
2013-04-18 01:27:00,32.9,29.0,29.93,NNW,337,1.9,4.2,82,0.00,,,0.00,Rainwise IP-100,2013-04-18 05:27:00,
2013-04-18 01:32:00,32.7,29.0,29.93,WNW,292,0.0,3.3,83,0.00,,,0.00,Rainwise IP-100,2013-04-18 05:32:00,
2013-04-18 01:37:00,32.6,29.0,29.92,WNW,292,0.0,0.0,83,0.00,,,0.00,Rainwise IP-100,2013-04-18 05:37:00,
2013-04-18 01:43:00,32.5,29.0,29.92,WNW,292,2.1,2.1,83,0.00,,,0.00,Rainwise IP-100,2013-04-18 05:43:00,
2013-04-18 01:48:00,32.2,28.0,29.93,SSW,202,1.2,3.0,83,0.00,,,0.00,Rainwise IP-100,2013-04-18 05:48:00,
2013-04-18 01:53:00,32.0,28.0,29.92,SSW,202,0.0,1.2,84,0.00,,,0.00,Rainwise IP-100,2013-04-18 05:53:00,
2013-04-18 01:58:00,31.9,28.0,29.92,SSW,202,1.2,1.6,84,0.00,,,0.00,Rainwise IP-100,2013-04-18 05:58:00,
2013-04-18 02:03:00,31.7,28.0,29.92,NNW,337,2.8,3.7,84,0.00,,,0.00,Rainwise IP-100,2013-04-18 06:03:00,
2013-04-18 02:08:00,31.7,28.0,29.93,NNW,337,0.0,4.7,85,0.00,,,0.00,Rainwise IP-100,2013-04-18 06:08:00,
2013-04-18 02:13:00,31.7,28.0,29.92,NNW,337,0.0,1.2,85,0.00,,,0.00,Rainwise IP-100,2013-04-18 06:13:00,
2013-04-18 02:18:00,31.5,28.0,29.92,NNW,337,1.4,1.4,85,0.00,,,0.00,Rainwise IP-100,2013-04-18 06:18:00,
2013-04-18 02:23:00,31.3,26.0,29.92,NNW,337,0.0,3.7,85,0.00,,,0.00,Rainwise IP-100,2013-04-18 06:23:00,
2013-04-18 02:28:00,31.1,26.0,29.93,NNW,337,0.0,0.0,85,0.00,,,0.00,Rainwise IP-100,2013-04-18 06:28:00,
2013-04-18 02:33:00,31.1,26.0,29.92,NNW,337,0.0,1.9,85,0.00,,,0.00,Rainwise IP-100,2013-04-18 06:33:00,
2013-04-18 02:38:00,31.0,28.0,29.93,NNW,337,0.0,2.6,86,0.00,,,0.00,Rainwise IP-100,2013-04-18 06:38:00,
2013-04-18 02:43:00,30.9,28.0,29.93,SW,225,0.0,2.6,86,0.00,,,0.00,Rainwise IP-100,2013-04-18 06:43:00,
2013-04-18 02:48:00,30.8,28.0,29.93,SW,225,0.0,0.0,86,0.00,,,0.00,Rainwise IP-100,2013-04-18 06:48:00,
2013-04-18 02:53:00,30.6,28.0,29.93,SW,225,0.0,0.0,86,0.00,,,0.00,Rainwise IP-100,2013-04-18 06:53:00,
2013-04-18 02:59:00,30.4,28.0,29.93,NNW,337,0.0,2.8,87,0.00,,,0.00,Rainwise IP-100,2013-04-18 06:59:00,
2013-04-18 03:04:00,30.4,28.0,29.93,WSW,247,2.1,2.8,87,0.00,,,0.00,Rainwise IP-100,2013-04-18 07:04:00,
2013-04-18 03:09:00,30.4,28.0,29.94,WSW,247,0.0,2.3,87,0.00,,,0.00,Rainwise IP-100,2013-04-18 07:09:00,
2013-04-18 03:14:00,30.3,28.0,29.95,WSW,247,1.2,1.4,87,0.00,,,0.00,Rainwise IP-100,2013-04-18 07:14:00,
2013-04-18 03:19:00,30.2,28.0,29.95,WSW,247,0.0,1.6,87,0.00,,,0.00,Rainwise IP-100,2013-04-18 07:19:00,
2013-04-18 03:24:00,30.2,28.0,29.94,WSW,247,0.0,0.0,88,0.00,,,0.00,Rainwise IP-100,2013-04-18 07:24:00,
2013-04-18 03:29:00,30.1,28.0,29.95,WNW,292,2.1,2.8,88,0.00,,,0.00,Rainwise IP-100,2013-04-18 07:29:00,
2013-04-18 03:34:00,30.2,28.0,29.95,NW,315,0.0,2.3,88,0.00,,,0.00,Rainwise IP-100,2013-04-18 07:34:00,
2013-04-18 03:39:00,30.2,28.0,29.95,NW,315,2.1,2.1,88,0.00,,,0.00,Rainwise IP-100,2013-04-18 07:39:00,
2013-04-18 03:44:00,30.0,28.0,29.96,NW,315,0.0,2.3,88,0.00,,,0.00,Rainwise IP-100,2013-04-18 07:44:00,
2013-04-18 03:49:00,29.9,28.0,29.96,NW,315,0.0,1.4,88,0.00,,,0.00,Rainwise IP-100,2013-04-18 07:49:00,
2013-04-18 03:54:00,29.7,28.0,29.96,NW,315,0.0,1.4,88,0.00,,,0.00,Rainwise IP-100,2013-04-18 07:54:00,
2013-04-18 03:59:00,29.6,28.0,29.97,NW,315,1.2,1.4,89,0.00,,,0.00,Rainwise IP-100,2013-04-18 07:59:00,
2013-04-18 04:04:00,29.6,28.0,29.97,NW,315,0.0,1.4,89,0.00,,,0.00,Rainwise IP-100,2013-04-18 08:04:00,
2013-04-18 04:10:00,29.6,28.0,29.97,NW,315,0.0,0.0,89,0.00,,,0.00,Rainwise IP-100,2013-04-18 08:10:00,
2013-04-18 04:15:00,29.4,26.0,29.97,NW,315,1.9,1.9,89,0.00,,,0.00,Rainwise IP-100,2013-04-18 08:15:00,
2013-04-18 04:20:00,29.3,26.0,29.97,NW,315,0.0,2.3,89,0.00,,,0.00,Rainwise IP-100,2013-04-18 08:20:00,
2013-04-18 04:25:00,29.2,26.0,29.96,NW,315,0.0,0.0,90,0.00,,,0.00,Rainwise IP-100,2013-04-18 08:25:00,
2013-04-18 04:30:00,29.3,26.0,29.96,NW,315,0.0,0.0,90,0.00,,,0.00,Rainwise IP-100,2013-04-18 08:30:00,
2013-04-18 04:35:00,29.3,26.0,29.97,NW,315,0.0,0.0,90,0.00,,,0.00,Rainwise IP-100,2013-04-18 08:35:00,
2013-04-18 04:40:00,29.2,26.0,29.96,NW,315,0.0,1.4,90,0.00,,,0.00,Rainwise IP-100,2013-04-18 08:40:00,
2013-04-18 04:45:00,29.3,26.0,29.96,NW,315,1.2,1.6,90,0.00,,,0.00,Rainwise IP-100,2013-04-18 08:45:00,
2013-04-18 04:50:00,29.4,28.0,29.96,NW,315,0.0,1.9,91,0.00,,,0.00,Rainwise IP-100,2013-04-18 08:50:00,
2013-04-18 04:55:00,29.4,28.0,29.96,NW,315,0.0,1.6,91,0.00,,,0.00,Rainwise IP-100,2013-04-18 08:55:00,
2013-04-18 05:00:00,29.2,28.0,29.96,NW,315,2.6,2.6,92,0.00,,,0.00,Rainwise IP-100,2013-04-18 09:00:00,
2013-04-18 05:05:00,29.1,28.0,29.96,NW,315,1.6,2.8,92,0.00,,,0.00,Rainwise IP-100,2013-04-18 09:05:00,
2013-04-18 05:10:00,29.2,28.0,29.96,NW,315,2.3,2.3,92,0.00,,,0.00,Rainwise IP-100,2013-04-18 09:10:00,
2013-04-18 05:15:00,29.2,28.0,29.95,NW,315,1.4,2.3,92,0.00,,,0.00,Rainwise IP-100,2013-04-18 09:15:00,
2013-04-18 05:20:00,29.1,28.0,29.95,NW,315,1.2,2.1,92,0.00,,,0.00,Rainwise IP-100,2013-04-18 09:20:00,
2013-04-18 05:26:00,29.1,28.0,29.95,NW,315,0.0,2.1,92,0.00,,,0.00,Rainwise IP-100,2013-04-18 09:26:00,
2013-04-18 05:31:00,29.2,28.0,29.95,NW,315,0.0,1.2,92,0.00,,,0.00,Rainwise IP-100,2013-04-18 09:31:00,
2013-04-18 05:36:00,29.1,28.0,29.95,NW,315,0.0,0.0,92,0.00,,,0.00,Rainwise IP-100,2013-04-18 09:36:00,
2013-04-18 05:41:00,29.0,28.0,29.96,NW,315,0.0,0.0,92,0.00,,,0.00,Rainwise IP-100,2013-04-18 09:41:00,
2013-04-18 05:46:00,29.1,28.0,29.95,NW,315,0.0,0.0,92,0.00,,,0.00,Rainwise IP-100,2013-04-18 09:46:00,
2013-04-18 05:51:00,29.1,28.0,29.95,NW,315,0.0,1.2,92,0.00,,,0.00,Rainwise IP-100,2013-04-18 09:51:00,
2013-04-18 05:56:00,29.0,28.0,29.95,NW,315,0.0,0.0,92,0.00,,,0.00,Rainwise IP-100,2013-04-18 09:56:00,
2013-04-18 06:01:00,28.8,28.0,29.95,NW,315,0.0,2.1,92,0.00,,,0.00,Rainwise IP-100,2013-04-18 10:01:00,
2013-04-18 06:06:00,28.7,28.0,29.95,NW,315,0.0,1.2,92,0.00,,,0.00,Rainwise IP-100,2013-04-18 10:06:00,
2013-04-18 06:11:00,28.7,28.0,29.96,NW,315,0.0,1.9,93,0.00,,,0.00,Rainwise IP-100,2013-04-18 10:11:00,
2013-04-18 06:16:00,28.9,28.0,29.96,NW,315,1.9,2.3,93,0.00,,,0.00,Rainwise IP-100,2013-04-18 10:16:00,
2013-04-18 06:21:00,29.1,28.0,29.96,NW,315,1.2,2.3,93,0.00,,,0.00,Rainwise IP-100,2013-04-18 10:21:00,
2013-04-18 06:26:00,29.1,28.0,29.97,NW,315,0.0,3.0,93,0.00,,,0.00,Rainwise IP-100,2013-04-18 10:26:00,
2013-04-18 06:31:00,29.3,28.0,29.98,NW,315,0.0,2.3,93,0.00,,,0.00,Rainwise IP-100,2013-04-18 10:31:00,
2013-04-18 06:36:00,29.6,29.0,29.98,NW,315,0.0,0.0,93,0.00,,,0.00,Rainwise IP-100,2013-04-18 10:36:00,
2013-04-18 06:42:00,29.8,29.0,29.98,NW,315,0.0,1.4,93,0.00,,,0.00,Rainwise IP-100,2013-04-18 10:42:00,
2013-04-18 06:47:00,29.9,29.0,29.98,NW,315,0.0,0.0,93,0.00,,,0.00,Rainwise IP-100,2013-04-18 10:47:00,
2013-04-18 06:52:00,30.1,29.0,29.98,NW,315,0.0,0.0,93,0.00,,,0.00,Rainwise IP-100,2013-04-18 10:52:00,
2013-04-18 06:57:00,30.3,29.0,29.98,NW,315,0.0,0.0,93,0.00,,,0.00,Rainwise IP-100,2013-04-18 10:57:00,
2013-04-18 07:02:00,30.6,29.0,29.98,NW,315,0.0,0.0,92,0.00,,,0.00,Rainwise IP-100,2013-04-18 11:02:00,
2013-04-18 07:07:00,30.9,29.0,29.98,NW,315,0.0,0.0,92,0.00,,,0.00,Rainwise IP-100,2013-04-18 11:07:00,
2013-04-18 07:12:00,31.0,29.0,29.99,NW,315,0.0,0.0,92,0.00,,,0.00,Rainwise IP-100,2013-04-18 11:12:00,
2013-04-18 07:17:00,31.2,29.0,29.99,NW,315,0.0,0.0,93,0.00,,,0.00,Rainwise IP-100,2013-04-18 11:17:00,
2013-04-18 07:22:00,31.4,29.0,29.99,NW,315,0.0,0.0,92,0.00,,,0.00,Rainwise IP-100,2013-04-18 11:22:00,
2013-04-18 07:27:00,31.6,29.0,29.99,NW,315,0.0,0.0,91,0.00,,,0.00,Rainwise IP-100,2013-04-18 11:27:00,
2013-04-18 07:32:00,31.8,29.0,29.99,NW,315,0.0,0.0,91,0.00,,,0.00,Rainwise IP-100,2013-04-18 11:32:00,
2013-04-18 07:37:00,32.1,29.0,29.98,NW,315,0.0,1.2,91,0.00,,,0.00,Rainwise IP-100,2013-04-18 11:37:00,
2013-04-18 07:42:00,32.8,31.0,29.98,NW,315,0.0,0.0,92,0.00,,,0.00,Rainwise IP-100,2013-04-18 11:42:00,
2013-04-18 07:47:00,33.7,33.0,29.98,NW,315,0.0,0.0,93,0.00,,,0.00,Rainwise IP-100,2013-04-18 11:47:00,
2013-04-18 07:52:00,34.6,33.0,29.98,ESE,112,0.0,2.1,94,0.00,,,0.00,Rainwise IP-100,2013-04-18 11:52:00,
2013-04-18 07:58:00,35.7,35.0,29.98,ESE,112,0.0,1.4,95,0.00,,,0.00,Rainwise IP-100,2013-04-18 11:58:00,
2013-04-18 08:03:00,36.6,36.0,29.98,ENE,67,1.9,3.0,96,0.00,,,0.00,Rainwise IP-100,2013-04-18 12:03:00,
2013-04-18 08:08:00,36.6,36.0,29.98,ENE,67,2.8,3.3,96,0.00,,,0.00,Rainwise IP-100,2013-04-18 12:08:00,
2013-04-18 08:13:00,37.1,36.0,29.98,East,90,0.0,3.3,96,0.00,,,0.00,Rainwise IP-100,2013-04-18 12:13:00,
2013-04-18 08:18:00,38.5,38.0,29.97,SSW,202,3.0,3.5,96,0.00,,,0.00,Rainwise IP-100,2013-04-18 12:18:00,
2013-04-18 08:23:00,38.9,38.0,29.98,ENE,67,2.3,4.0,95,0.00,,,0.00,Rainwise IP-100,2013-04-18 12:23:00,
2013-04-18 08:28:00,38.6,37.0,29.97,ENE,67,1.4,3.5,93,0.00,,,0.00,Rainwise IP-100,2013-04-18 12:28:00,
2013-04-18 08:33:00,38.9,37.0,29.97,ENE,67,0.0,3.0,93,0.00,,,0.00,Rainwise IP-100,2013-04-18 12:33:00,
2013-04-18 08:36:00,39.3,37.0,29.97,East,90,3.0,3.0,92,0.00,,,0.00,Rainwise IP-100,2013-04-18 12:36:00,
2013-04-18 08:42:00,39.7,37.0,29.97,ESE,112,1.6,4.4,88,0.00,,,0.00,Rainwise IP-100,2013-04-18 12:42:00,
2013-04-18 08:47:00,40.6,37.0,29.96,SE,135,1.4,2.3,84,0.00,,,0.00,Rainwise IP-100,2013-04-18 12:47:00,
2013-04-18 08:52:00,42.2,37.0,29.97,SSW,202,0.0,2.1,81,0.00,,,0.00,Rainwise IP-100,2013-04-18 12:52:00,
2013-04-18 08:57:00,43.5,38.0,29.96,SSE,157,2.3,3.7,78,0.00,,,0.00,Rainwise IP-100,2013-04-18 12:57:00,
2013-04-18 09:02:00,45.0,38.0,29.96,SSW,202,1.4,2.8,76,0.00,,,0.00,Rainwise IP-100,2013-04-18 13:02:00,
2013-04-18 09:07:00,46.3,38.0,29.96,SSW,202,6.1,6.1,73,0.00,,,0.00,Rainwise IP-100,2013-04-18 13:07:00,
2013-04-18 09:12:00,46.3,35.0,29.96,SSW,202,4.2,7.5,66,0.00,,,0.00,Rainwise IP-100,2013-04-18 13:12:00,
2013-04-18 09:17:00,46.2,33.0,29.95,South,180,2.1,5.8,60,0.00,,,0.00,Rainwise IP-100,2013-04-18 13:17:00,
2013-04-18 09:22:00,46.9,32.0,29.95,SSW,202,0.0,7.0,57,0.00,,,0.00,Rainwise IP-100,2013-04-18 13:22:00,
2013-04-18 09:27:00,47.3,32.0,29.94,SSE,157,0.0,5.4,56,0.00,,,0.00,Rainwise IP-100,2013-04-18 13:27:00,
2013-04-18 09:32:00,48.0,33.0,29.94,SSW,202,2.8,4.2,57,0.00,,,0.00,Rainwise IP-100,2013-04-18 13:32:00,
2013-04-18 09:37:00,48.5,33.0,29.95,ESE,112,0.0,4.7,54,0.00,,,0.00,Rainwise IP-100,2013-04-18 13:37:00,
2013-04-18 09:42:00,48.1,32.0,29.94,SSE,157,1.6,3.3,52,0.00,,,0.00,Rainwise IP-100,2013-04-18 13:42:00,
2013-04-18 09:47:00,48.2,31.0,29.93,SE,135,6.3,13.5,49,0.00,,,0.00,Rainwise IP-100,2013-04-18 13:47:00,
2013-04-18 09:52:00,48.9,29.0,29.94,South,180,4.2,11.7,46,0.00,,,0.00,Rainwise IP-100,2013-04-18 13:52:00,
2013-04-18 09:58:00,49.7,29.0,29.93,SSW,202,5.6,6.5,44,0.00,,,0.00,Rainwise IP-100,2013-04-18 13:58:00,
2013-04-18 10:03:00,50.2,28.0,29.93,ENE,67,1.6,9.8,43,0.00,,,0.00,Rainwise IP-100,2013-04-18 14:03:00,
2013-04-18 10:08:00,50.7,28.0,29.93,SSW,202,8.4,10.3,41,0.00,,,0.00,Rainwise IP-100,2013-04-18 14:08:00,
2013-04-18 10:13:00,51.2,28.0,29.92,SW,225,11.4,16.1,40,0.00,,,0.00,Rainwise IP-100,2013-04-18 14:13:00,
2013-04-18 10:18:00,51.3,28.0,29.93,SSW,202,10.3,14.5,39,0.00,,,0.00,Rainwise IP-100,2013-04-18 14:18:00,
2013-04-18 10:23:00,51.2,28.0,29.92,ENE,67,7.2,15.6,39,0.00,,,0.00,Rainwise IP-100,2013-04-18 14:23:00,
2013-04-18 10:28:00,51.2,28.0,29.93,SSW,202,9.3,10.3,39,0.00,,,0.00,Rainwise IP-100,2013-04-18 14:28:00,
2013-04-18 10:33:00,51.5,28.0,29.92,WSW,247,3.0,16.1,39,0.00,,,0.00,Rainwise IP-100,2013-04-18 14:33:00,
2013-04-18 10:38:00,51.5,28.0,29.92,SSW,202,10.0,15.4,38,0.00,,,0.00,Rainwise IP-100,2013-04-18 14:38:00,
2013-04-18 10:43:00,51.5,28.0,29.92,SSE,157,5.6,15.2,38,0.00,,,0.00,Rainwise IP-100,2013-04-18 14:43:00,
2013-04-18 10:48:00,51.5,28.0,29.92,SSW,202,14.7,14.7,38,0.00,,,0.00,Rainwise IP-100,2013-04-18 14:48:00,
2013-04-18 10:53:00,51.3,28.0,29.92,SSW,202,7.5,15.2,39,0.00,,,0.00,Rainwise IP-100,2013-04-18 14:53:00,
2013-04-18 10:58:00,51.1,28.0,29.92,SSE,157,4.7,12.1,39,0.00,,,0.00,Rainwise IP-100,2013-04-18 14:58:00,
2013-04-18 11:03:00,50.9,28.0,29.92,SSW,202,6.8,13.5,39,0.00,,,0.00,Rainwise IP-100,2013-04-18 15:03:00,
2013-04-18 11:08:00,50.7,28.0,29.92,South,180,5.1,12.4,40,0.00,,,0.00,Rainwise IP-100,2013-04-18 15:08:00,
2013-04-18 11:14:00,50.5,28.0,29.92,SSW,202,8.2,11.2,40,0.00,,,0.00,Rainwise IP-100,2013-04-18 15:14:00,
2013-04-18 11:19:00,50.4,28.0,29.91,SSW,202,9.6,9.6,40,0.00,,,0.00,Rainwise IP-100,2013-04-18 15:19:00,
2013-04-18 11:24:00,50.2,28.0,29.91,SE,135,3.7,12.4,41,0.00,,,0.00,Rainwise IP-100,2013-04-18 15:24:00,
2013-04-18 11:29:00,50.1,28.0,29.92,SSW,202,6.8,10.0,41,0.00,,,0.00,Rainwise IP-100,2013-04-18 15:29:00,
2013-04-18 11:34:00,50.1,28.0,29.90,ESE,112,6.3,12.8,41,0.00,,,0.00,Rainwise IP-100,2013-04-18 15:34:00,
2013-04-18 11:39:00,50.2,28.0,29.91,SSE,157,6.5,8.2,41,0.00,,,0.00,Rainwise IP-100,2013-04-18 15:39:00,
2013-04-18 11:43:00,50.2,28.0,29.90,ENE,67,0.0,7.5,41,0.00,,,0.00,Rainwise IP-100,2013-04-18 15:43:00,
2013-04-18 11:48:00,50.3,28.0,29.89,ESE,112,6.3,12.1,41,0.00,,,0.00,Rainwise IP-100,2013-04-18 15:48:00,
2013-04-18 11:53:00,50.5,28.0,29.90,SW,225,3.5,9.8,41,0.00,,,0.00,Rainwise IP-100,2013-04-18 15:53:00,
2013-04-18 11:58:00,50.7,28.0,29.89,SSE,157,7.2,8.6,41,0.00,,,0.00,Rainwise IP-100,2013-04-18 15:58:00,
2013-04-18 12:03:00,50.7,28.0,29.88,East,90,2.3,10.3,41,0.00,,,0.00,Rainwise IP-100,2013-04-18 16:03:00,
2013-04-18 12:08:00,50.8,29.0,29.88,ENE,67,0.0,7.7,42,0.00,,,0.00,Rainwise IP-100,2013-04-18 16:08:00,
2013-04-18 12:14:00,50.9,29.0,29.88,NNW,337,0.0,3.5,42,0.00,,,0.00,Rainwise IP-100,2013-04-18 16:14:00,
2013-04-18 12:19:00,51.0,29.0,29.88,WSW,247,2.8,4.4,42,0.00,,,0.00,Rainwise IP-100,2013-04-18 16:19:00,
2013-04-18 12:24:00,51.2,29.0,29.88,SSW,202,3.5,8.9,42,0.00,,,0.00,Rainwise IP-100,2013-04-18 16:24:00,
2013-04-18 12:29:00,51.5,29.0,29.87,SSE,157,2.3,7.9,42,0.00,,,0.00,Rainwise IP-100,2013-04-18 16:29:00,
2013-04-18 12:34:00,51.7,29.0,29.86,ESE,112,3.0,8.2,42,0.00,,,0.00,Rainwise IP-100,2013-04-18 16:34:00,
2013-04-18 12:39:00,51.9,29.0,29.86,SW,225,3.3,5.4,42,0.00,,,0.00,Rainwise IP-100,2013-04-18 16:39:00,
2013-04-18 12:44:00,52.1,29.0,29.85,SSE,157,3.5,6.3,41,0.00,,,0.00,Rainwise IP-100,2013-04-18 16:44:00,
2013-04-18 12:49:00,52.4,29.0,29.84,ESE,112,0.0,6.1,41,0.00,,,0.00,Rainwise IP-100,2013-04-18 16:49:00,
2013-04-18 12:54:00,52.5,29.0,29.84,WSW,247,2.8,6.3,41,0.00,,,0.00,Rainwise IP-100,2013-04-18 16:54:00,
2013-04-18 12:59:00,52.7,29.0,29.84,ENE,67,1.9,4.0,41,0.00,,,0.00,Rainwise IP-100,2013-04-18 16:59:00,
2013-04-18 13:04:00,53.1,29.0,29.84,SSW,202,3.7,6.5,41,0.00,,,0.00,Rainwise IP-100,2013-04-18 17:04:00,
2013-04-18 13:09:00,53.7,31.0,29.83,SSW,202,4.9,9.8,41,0.00,,,0.00,Rainwise IP-100,2013-04-18 17:09:00,
2013-04-18 13:14:00,54.3,32.0,29.83,SE,135,2.6,11.9,41,0.00,,,0.00,Rainwise IP-100,2013-04-18 17:14:00,
2013-04-18 13:19:00,54.7,32.0,29.84,SSE,157,5.4,14.7,41,0.00,,,0.00,Rainwise IP-100,2013-04-18 17:19:00,
2013-04-18 13:24:00,54.9,32.0,29.83,SSE,157,10.7,14.2,40,0.00,,,0.00,Rainwise IP-100,2013-04-18 17:24:00,
2013-04-18 13:30:00,55.1,32.0,29.83,WSW,247,2.1,15.6,40,0.00,,,0.00,Rainwise IP-100,2013-04-18 17:30:00,
2013-04-18 13:35:00,55.3,32.0,29.83,SSE,157,6.8,12.6,40,0.00,,,0.00,Rainwise IP-100,2013-04-18 17:35:00,
2013-04-18 13:40:00,55.4,32.0,29.82,West,270,6.1,13.5,40,0.00,,,0.00,Rainwise IP-100,2013-04-18 17:40:00,
2013-04-18 13:45:00,55.5,32.0,29.82,WNW,292,1.4,14.7,40,0.00,,,0.00,Rainwise IP-100,2013-04-18 17:45:00,
2013-04-18 13:50:00,55.9,32.0,29.81,SW,225,8.9,15.2,40,0.00,,,0.00,Rainwise IP-100,2013-04-18 17:50:00,
2013-04-18 13:55:00,56.2,32.0,29.82,SW,225,8.2,11.7,40,0.00,,,0.00,Rainwise IP-100,2013-04-18 17:55:00,
2013-04-18 14:00:00,56.5,32.0,29.81,SE,135,3.0,18.7,40,0.00,,,0.00,Rainwise IP-100,2013-04-18 18:00:00,
2013-04-18 14:05:00,56.7,32.0,29.81,SSW,202,4.4,12.4,40,0.00,,,0.00,Rainwise IP-100,2013-04-18 18:05:00,
2013-04-18 14:10:00,57.0,33.0,29.81,ESE,112,1.6,7.5,40,0.00,,,0.00,Rainwise IP-100,2013-04-18 18:10:00,
2013-04-18 14:15:00,57.4,33.0,29.80,ESE,112,1.9,10.5,39,0.00,,,0.00,Rainwise IP-100,2013-04-18 18:15:00,
2013-04-18 14:20:00,57.8,33.0,29.80,WSW,247,8.9,16.6,39,0.00,,,0.00,Rainwise IP-100,2013-04-18 18:20:00,
2013-04-18 14:25:00,58.1,33.0,29.79,SSW,202,4.9,14.9,39,0.00,,,0.00,Rainwise IP-100,2013-04-18 18:25:00,
2013-04-18 14:30:00,58.6,33.0,29.79,SSE,157,3.7,12.8,38,0.00,,,0.00,Rainwise IP-100,2013-04-18 18:30:00,
2013-04-18 14:35:00,58.9,33.0,29.78,SSE,157,6.1,12.4,38,0.00,,,0.00,Rainwise IP-100,2013-04-18 18:35:00,
2013-04-18 14:40:00,59.1,33.0,29.78,SSE,157,4.7,14.9,38,0.00,,,0.00,Rainwise IP-100,2013-04-18 18:40:00,
2013-04-18 14:46:00,59.2,33.0,29.78,South,180,10.3,15.6,38,0.00,,,0.00,Rainwise IP-100,2013-04-18 18:46:00,
2013-04-18 14:51:00,59.3,33.0,29.77,SSW,202,7.2,12.8,38,0.00,,,0.00,Rainwise IP-100,2013-04-18 18:51:00,
2013-04-18 14:56:00,59.3,33.0,29.77,SSW,202,8.4,17.7,38,0.00,,,0.00,Rainwise IP-100,2013-04-18 18:56:00,
2013-04-18 15:01:00,59.4,33.0,29.77,SSE,157,4.2,13.1,38,0.00,,,0.00,Rainwise IP-100,2013-04-18 19:01:00,
2013-04-18 15:06:00,59.7,33.0,29.77,SE,135,6.3,14.9,38,0.00,,,0.00,Rainwise IP-100,2013-04-18 19:06:00,
2013-04-18 15:11:00,60.1,35.0,29.76,SSW,202,7.9,11.2,38,0.00,,,0.00,Rainwise IP-100,2013-04-18 19:11:00,
2013-04-18 15:16:00,60.5,35.0,29.76,SSW,202,4.7,15.4,37,0.00,,,0.00,Rainwise IP-100,2013-04-18 19:16:00,
2013-04-18 15:21:00,60.8,35.0,29.75,South,180,4.9,16.3,37,0.00,,,0.00,Rainwise IP-100,2013-04-18 19:21:00,
2013-04-18 15:26:00,61.0,35.0,29.75,SSW,202,9.8,13.5,37,0.00,,,0.00,Rainwise IP-100,2013-04-18 19:26:00,
2013-04-18 15:31:00,61.1,35.0,29.75,WSW,247,11.4,18.0,37,0.00,,,0.00,Rainwise IP-100,2013-04-18 19:31:00,
2013-04-18 15:36:00,61.0,35.0,29.75,SSW,202,12.1,18.2,37,0.00,,,0.00,Rainwise IP-100,2013-04-18 19:36:00,
2013-04-18 15:42:00,60.9,35.0,29.75,SW,225,2.6,15.4,37,0.00,,,0.00,Rainwise IP-100,2013-04-18 19:42:00,
2013-04-18 15:47:00,60.9,35.0,29.74,SW,225,9.3,21.7,37,0.00,,,0.00,Rainwise IP-100,2013-04-18 19:47:00,
2013-04-18 15:52:00,60.8,35.0,29.73,SSW,202,15.2,16.3,37,0.00,,,0.00,Rainwise IP-100,2013-04-18 19:52:00,
2013-04-18 15:57:00,60.8,35.0,29.73,SSW,202,11.7,15.2,37,0.00,,,0.00,Rainwise IP-100,2013-04-18 19:57:00,
2013-04-18 16:02:00,60.8,35.0,29.73,SSE,157,4.4,15.9,37,0.00,,,0.00,Rainwise IP-100,2013-04-18 20:02:00,
2013-04-18 16:07:00,60.8,35.0,29.73,SW,225,5.8,10.5,37,0.00,,,0.00,Rainwise IP-100,2013-04-18 20:07:00,
2013-04-18 16:12:00,60.8,35.0,29.72,SSW,202,11.2,13.5,37,0.00,,,0.00,Rainwise IP-100,2013-04-18 20:12:00,
2013-04-18 16:17:00,60.8,35.0,29.72,SSE,157,6.8,15.2,37,0.00,,,0.00,Rainwise IP-100,2013-04-18 20:17:00,
2013-04-18 16:22:00,60.9,35.0,29.72,SSW,202,8.9,17.7,37,0.00,,,0.00,Rainwise IP-100,2013-04-18 20:22:00,
2013-04-18 16:27:00,60.9,35.0,29.72,SSW,202,15.4,19.6,37,0.00,,,0.00,Rainwise IP-100,2013-04-18 20:27:00,
2013-04-18 16:32:00,60.9,35.0,29.72,South,180,14.2,23.6,37,0.00,,,0.00,Rainwise IP-100,2013-04-18 20:32:00,
2013-04-18 16:37:00,60.9,35.0,29.72,SSW,202,7.2,15.9,37,0.00,,,0.00,Rainwise IP-100,2013-04-18 20:37:00,
2013-04-18 16:42:00,60.9,33.0,29.72,SSW,202,7.2,23.6,36,0.00,,,0.00,Rainwise IP-100,2013-04-18 20:42:00,
2013-04-18 16:47:00,61.0,33.0,29.72,WSW,247,7.0,20.8,36,0.00,,,0.00,Rainwise IP-100,2013-04-18 20:47:00,
2013-04-18 16:52:00,60.9,33.0,29.72,SSE,157,18.0,23.1,36,0.00,,,0.00,Rainwise IP-100,2013-04-18 20:52:00,
2013-04-18 16:58:00,60.9,33.0,29.72,SSW,202,19.4,24.0,36,0.00,,,0.00,Rainwise IP-100,2013-04-18 20:58:00,
2013-04-18 17:03:00,60.9,33.0,29.72,SSW,202,12.4,24.5,36,0.00,,,0.00,Rainwise IP-100,2013-04-18 21:03:00,
2013-04-18 17:08:00,60.8,33.0,29.72,SSW,202,12.6,19.8,36,0.00,,,0.00,Rainwise IP-100,2013-04-18 21:08:00,
2013-04-18 17:13:00,60.8,33.0,29.71,SSE,157,14.7,20.5,36,0.00,,,0.00,Rainwise IP-100,2013-04-18 21:13:00,
2013-04-18 17:18:00,60.7,33.0,29.71,SSW,202,7.5,24.2,36,0.00,,,0.00,Rainwise IP-100,2013-04-18 21:18:00,
2013-04-18 17:23:00,60.6,33.0,29.71,SSW,202,6.3,19.1,36,0.00,,,0.00,Rainwise IP-100,2013-04-18 21:23:00,
2013-04-18 17:28:00,60.5,33.0,29.71,SSW,202,15.4,25.6,36,0.00,,,0.00,Rainwise IP-100,2013-04-18 21:28:00,
2013-04-18 17:33:00,60.4,33.0,29.71,SSE,157,8.6,21.5,36,0.00,,,0.00,Rainwise IP-100,2013-04-18 21:33:00,
2013-04-18 17:38:00,60.2,33.0,29.72,SW,225,8.6,15.6,36,0.00,,,0.00,Rainwise IP-100,2013-04-18 21:38:00,
2013-04-18 17:43:00,60.1,33.0,29.71,SSW,202,12.1,25.2,36,0.00,,,0.00,Rainwise IP-100,2013-04-18 21:43:00,
2013-04-18 17:48:00,60.0,33.0,29.70,SSW,202,6.3,17.3,36,0.00,,,0.00,Rainwise IP-100,2013-04-18 21:48:00,
2013-04-18 17:53:00,59.9,33.0,29.70,SSW,202,8.9,15.4,36,0.00,,,0.00,Rainwise IP-100,2013-04-18 21:53:00,
2013-04-18 17:58:00,59.8,33.0,29.70,South,180,10.7,12.4,37,0.00,,,0.00,Rainwise IP-100,2013-04-18 21:58:00,
2013-04-18 18:03:00,59.6,33.0,29.71,SSW,202,6.5,13.8,37,0.00,,,0.00,Rainwise IP-100,2013-04-18 22:03:00,
2013-04-18 18:08:00,59.5,33.0,29.70,SSW,202,8.6,12.8,37,0.00,,,0.00,Rainwise IP-100,2013-04-18 22:08:00,
2013-04-18 18:14:00,59.3,33.0,29.70,SSW,202,10.5,14.2,37,0.00,,,0.00,Rainwise IP-100,2013-04-18 22:14:00,
2013-04-18 18:19:00,59.2,32.0,29.69,SSW,202,6.8,15.9,36,0.00,,,0.00,Rainwise IP-100,2013-04-18 22:19:00,
2013-04-18 18:24:00,59.1,32.0,29.69,WSW,247,7.7,13.5,36,0.00,,,0.00,Rainwise IP-100,2013-04-18 22:24:00,
2013-04-18 18:29:00,59.0,32.0,29.69,SSW,202,5.6,16.1,36,0.00,,,0.00,Rainwise IP-100,2013-04-18 22:29:00,
2013-04-18 18:34:00,58.9,33.0,29.69,SSW,202,6.8,10.0,37,0.00,,,0.00,Rainwise IP-100,2013-04-18 22:34:00,
2013-04-18 18:39:00,58.7,33.0,29.69,SSW,202,10.7,14.2,37,0.00,,,0.00,Rainwise IP-100,2013-04-18 22:39:00,
2013-04-18 18:44:00,58.7,33.0,29.69,SSW,202,7.5,14.5,37,0.00,,,0.00,Rainwise IP-100,2013-04-18 22:44:00,
2013-04-18 18:49:00,58.7,33.0,29.69,SSW,202,4.4,10.5,37,0.00,,,0.00,Rainwise IP-100,2013-04-18 22:49:00,
2013-04-18 18:54:00,58.6,33.0,29.69,SSW,202,6.3,9.8,37,0.00,,,0.00,Rainwise IP-100,2013-04-18 22:54:00,
2013-04-18 18:59:00,58.6,32.0,29.69,WSW,247,7.0,18.7,36,0.00,,,0.00,Rainwise IP-100,2013-04-18 22:59:00,
2013-04-18 19:04:00,58.7,32.0,29.70,SSW,202,6.5,14.0,36,0.00,,,0.00,Rainwise IP-100,2013-04-18 23:04:00,
2013-04-18 19:09:00,58.6,32.0,29.69,SW,225,9.8,22.6,35,0.00,,,0.00,Rainwise IP-100,2013-04-18 23:09:00,
2013-04-18 19:14:00,58.5,32.0,29.70,SSE,157,10.7,14.2,35,0.00,,,0.00,Rainwise IP-100,2013-04-18 23:14:00,
2013-04-18 19:19:00,58.3,31.0,29.69,South,180,9.8,15.6,35,0.00,,,0.00,Rainwise IP-100,2013-04-18 23:19:00,
2013-04-18 19:25:00,58.2,31.0,29.69,WSW,247,13.3,15.6,35,0.00,,,0.00,Rainwise IP-100,2013-04-18 23:25:00,
2013-04-18 19:30:00,58.2,31.0,29.69,SSW,202,9.1,21.7,35,0.00,,,0.00,Rainwise IP-100,2013-04-18 23:30:00,
2013-04-18 19:35:00,58.2,31.0,29.69,South,180,5.4,14.5,35,0.00,,,0.00,Rainwise IP-100,2013-04-18 23:35:00,
2013-04-18 19:40:00,58.0,31.0,29.69,SW,225,16.8,21.2,35,0.00,,,0.00,Rainwise IP-100,2013-04-18 23:40:00,
2013-04-18 19:45:00,57.9,31.0,29.69,SSW,202,12.4,17.7,35,0.00,,,0.00,Rainwise IP-100,2013-04-18 23:45:00,
2013-04-18 19:50:00,57.8,31.0,29.68,SSW,202,6.5,19.1,35,0.00,,,0.00,Rainwise IP-100,2013-04-18 23:50:00,
2013-04-18 19:55:00,57.6,31.0,29.68,SSE,157,17.3,19.1,35,0.00,,,0.00,Rainwise IP-100,2013-04-18 23:55:00,
2013-04-18 20:00:00,57.5,31.0,29.68,SSW,202,13.3,20.5,35,0.00,,,0.00,Rainwise IP-100,2013-04-19 00:00:00,
2013-04-18 20:05:00,57.5,31.0,29.68,SW,225,17.5,17.5,35,0.00,,,0.00,Rainwise IP-100,2013-04-19 00:05:00,
2013-04-18 20:10:00,57.4,31.0,29.68,South,180,7.9,20.5,35,0.00,,,0.00,Rainwise IP-100,2013-04-19 00:10:00,
2013-04-18 20:15:00,57.3,31.0,29.67,SSW,202,11.2,12.6,35,0.00,,,0.00,Rainwise IP-100,2013-04-19 00:15:00,
2013-04-18 20:20:00,57.2,29.0,29.68,SSW,202,7.7,15.6,35,0.00,,,0.00,Rainwise IP-100,2013-04-19 00:20:00,
2013-04-18 20:25:00,57.0,29.0,29.68,SSW,202,11.9,14.0,35,0.00,,,0.00,Rainwise IP-100,2013-04-19 00:25:00,
2013-04-18 20:30:00,56.9,31.0,29.68,South,180,13.5,13.5,36,0.00,,,0.00,Rainwise IP-100,2013-04-19 00:30:00,
2013-04-18 20:35:00,56.8,31.0,29.68,SSW,202,5.1,13.8,36,0.00,,,0.00,Rainwise IP-100,2013-04-19 00:35:00,
2013-04-18 20:41:00,56.6,31.0,29.68,SSW,202,9.1,11.2,36,0.00,,,0.00,Rainwise IP-100,2013-04-19 00:41:00,
2013-04-18 20:46:00,56.4,31.0,29.68,South,180,5.6,9.6,36,0.00,,,0.00,Rainwise IP-100,2013-04-19 00:46:00,
2013-04-18 20:51:00,56.3,31.0,29.69,SSW,202,13.1,13.1,37,0.00,,,0.00,Rainwise IP-100,2013-04-19 00:51:00,
2013-04-18 20:56:00,56.2,31.0,29.68,SSW,202,5.6,13.1,37,0.00,,,0.00,Rainwise IP-100,2013-04-19 00:56:00,
2013-04-18 21:01:00,56.1,31.0,29.68,SSE,157,7.2,9.6,37,0.00,,,0.00,Rainwise IP-100,2013-04-19 01:01:00,
2013-04-18 21:06:00,55.9,31.0,29.68,SSW,202,7.0,8.4,38,0.00,,,0.00,Rainwise IP-100,2013-04-19 01:06:00,
2013-04-18 21:11:00,55.8,31.0,29.69,SW,225,6.3,8.9,38,0.00,,,0.00,Rainwise IP-100,2013-04-19 01:11:00,
2013-04-18 21:16:00,55.7,31.0,29.68,SSW,202,4.7,10.5,38,0.00,,,0.00,Rainwise IP-100,2013-04-19 01:16:00,
2013-04-18 21:21:00,55.6,31.0,29.68,South,180,5.1,7.0,38,0.00,,,0.00,Rainwise IP-100,2013-04-19 01:21:00,
2013-04-18 21:26:00,55.5,31.0,29.69,SSW,202,4.7,8.6,38,0.00,,,0.00,Rainwise IP-100,2013-04-19 01:26:00,
2013-04-18 21:31:00,55.4,31.0,29.69,SSW,202,7.0,10.0,38,0.00,,,0.00,Rainwise IP-100,2013-04-19 01:31:00,
2013-04-18 21:36:00,55.4,31.0,29.68,SSE,157,5.6,9.3,38,0.00,,,0.00,Rainwise IP-100,2013-04-19 01:36:00,
2013-04-18 21:41:00,55.3,31.0,29.69,SSW,202,3.7,6.3,38,0.00,,,0.00,Rainwise IP-100,2013-04-19 01:41:00,
2013-04-18 21:47:00,55.1,31.0,29.68,SSW,202,4.9,7.9,39,0.00,,,0.00,Rainwise IP-100,2013-04-19 01:47:00,
2013-04-18 21:52:00,55.0,31.0,29.68,SSW,202,4.4,10.3,39,0.00,,,0.00,Rainwise IP-100,2013-04-19 01:52:00,
2013-04-18 21:57:00,54.9,31.0,29.68,SSW,202,4.7,8.9,39,0.00,,,0.00,Rainwise IP-100,2013-04-19 01:57:00,
2013-04-18 22:02:00,54.8,31.0,29.68,SSW,202,9.1,9.6,39,0.00,,,0.00,Rainwise IP-100,2013-04-19 02:02:00,
2013-04-18 22:07:00,54.8,31.0,29.68,SSW,202,4.0,15.6,38,0.00,,,0.00,Rainwise IP-100,2013-04-19 02:07:00,
2013-04-18 22:12:00,54.9,31.0,29.68,SSW,202,8.9,13.3,38,0.00,,,0.00,Rainwise IP-100,2013-04-19 02:12:00,
2013-04-18 22:17:00,54.8,31.0,29.68,SW,225,4.7,14.2,38,0.00,,,0.00,Rainwise IP-100,2013-04-19 02:17:00,
2013-04-18 22:22:00,54.7,29.0,29.67,South,180,12.8,20.8,38,0.00,,,0.00,Rainwise IP-100,2013-04-19 02:22:00,
2013-04-18 22:27:00,54.6,31.0,29.67,SW,225,6.8,14.7,39,0.00,,,0.00,Rainwise IP-100,2013-04-19 02:27:00,
2013-04-18 22:32:00,54.6,31.0,29.67,SSW,202,7.7,16.1,39,0.00,,,0.00,Rainwise IP-100,2013-04-19 02:32:00,
2013-04-18 22:37:00,54.6,31.0,29.67,SSE,157,9.3,17.3,40,0.00,,,0.00,Rainwise IP-100,2013-04-19 02:37:00,
2013-04-18 22:42:00,54.5,32.0,29.67,SSE,157,11.0,12.4,41,0.00,,,0.00,Rainwise IP-100,2013-04-19 02:42:00,
2013-04-18 22:47:00,54.4,32.0,29.67,SSE,157,8.9,16.6,42,0.00,,,0.00,Rainwise IP-100,2013-04-19 02:47:00,
2013-04-18 22:52:00,54.3,32.0,29.66,WSW,247,5.4,16.6,43,0.00,,,0.00,Rainwise IP-100,2013-04-19 02:52:00,
2013-04-18 22:57:00,54.3,33.0,29.67,SW,225,6.1,17.7,44,0.00,,,0.00,Rainwise IP-100,2013-04-19 02:57:00,
2013-04-18 23:03:00,54.4,33.0,29.67,SSW,202,3.7,14.7,44,0.00,,,0.00,Rainwise IP-100,2013-04-19 03:03:00,
2013-04-18 23:08:00,54.4,33.0,29.67,SSW,202,9.8,14.9,45,0.00,,,0.00,Rainwise IP-100,2013-04-19 03:08:00,
2013-04-18 23:13:00,54.3,35.0,29.67,SSE,157,10.5,16.3,46,0.00,,,0.00,Rainwise IP-100,2013-04-19 03:13:00,
2013-04-18 23:18:00,54.2,35.0,29.66,WSW,247,6.1,11.4,47,0.00,,,0.00,Rainwise IP-100,2013-04-19 03:18:00,
2013-04-18 23:23:00,54.1,35.0,29.66,SSW,202,8.2,15.9,48,0.00,,,0.00,Rainwise IP-100,2013-04-19 03:23:00,
2013-04-18 23:28:00,54.0,36.0,29.66,SSE,157,12.1,19.1,49,0.00,,,0.00,Rainwise IP-100,2013-04-19 03:28:00,
2013-04-18 23:33:00,54.0,36.0,29.65,South,180,8.2,14.5,50,0.00,,,0.00,Rainwise IP-100,2013-04-19 03:33:00,
2013-04-18 23:38:00,53.9,36.0,29.65,SW,225,4.0,13.1,51,0.00,,,0.00,Rainwise IP-100,2013-04-19 03:38:00,
2013-04-18 23:43:00,53.8,37.0,29.65,SSW,202,3.3,11.0,52,0.00,,,0.00,Rainwise IP-100,2013-04-19 03:43:00,
2013-04-18 23:48:00,53.7,37.0,29.65,SE,135,2.1,18.9,53,0.00,,,0.00,Rainwise IP-100,2013-04-19 03:48:00,
2013-04-18 23:53:00,53.7,37.0,29.65,SSW,202,6.3,19.1,54,0.00,,,0.00,Rainwise IP-100,2013-04-19 03:53:00,
2013-04-18 23:58:00,53.7,38.0,29.64,SSE,157,11.2,13.1,56,0.00,,,0.00,Rainwise IP-100,2013-04-19 03:58:00,